Time,TemperatureF,DewpointF,PressureIn,WindDirection,WindDirectionDegrees,WindSpeedMPH,WindSpeedGustMPH,Humidity,HourlyPrecipIn,Conditions,Clouds,dailyrainin,SoftwareType,DateUTC
2013-07-30 00:02:00,51.3,49.1,29.97,NNE,23,18.0,19.0,92,0.00,,,0.00,meteohub,2013-07-29 11:02:00,
2013-07-30 00:07:00,51.1,48.9,29.97,NNE,32,16.0,19.0,92,0.00,,,0.00,meteohub,2013-07-29 11:07:00,
2013-07-30 00:12:00,50.7,48.6,29.97,NNE,23,13.0,19.0,92,0.00,,,0.00,meteohub,2013-07-29 11:12:00,
2013-07-30 00:18:00,50.7,48.7,29.97,NE,44,15.0,19.0,93,0.00,,,0.00,meteohub,2013-07-29 11:18:00,
2013-07-30 00:23:00,50.7,48.7,29.98,NNE,30,15.0,19.0,93,0.00,,,0.00,meteohub,2013-07-29 11:23:00,
2013-07-30 00:28:00,50.5,48.6,29.97,NE,45,14.0,19.0,93,0.00,,,0.00,meteohub,2013-07-29 11:28:00,
2013-07-30 00:33:00,50.5,48.6,29.97,NNE,25,14.0,18.0,93,0.00,,,0.00,meteohub,2013-07-29 11:33:00,
2013-07-30 00:39:00,50.4,48.4,29.97,NNE,25,16.0,18.0,93,0.00,,,0.00,meteohub,2013-07-29 11:39:00,
2013-07-30 00:44:00,50.4,48.4,29.98,NE,39,11.0,18.0,93,0.00,,,0.00,meteohub,2013-07-29 11:44:00,
2013-07-30 00:49:00,50.4,48.7,29.97,NNE,29,15.0,19.0,94,0.00,,,0.00,meteohub,2013-07-29 11:49:00,
2013-07-30 00:54:00,50.2,48.6,29.97,NE,39,16.0,19.0,94,0.00,,,0.00,meteohub,2013-07-29 11:54:00,
2013-07-30 01:00:00,50.2,48.6,29.97,NNE,29,16.0,19.0,94,0.00,,,0.00,meteohub,2013-07-29 12:00:00,
2013-07-30 01:05:00,50.2,48.6,29.97,NE,36,14.0,19.0,94,0.00,,,0.00,meteohub,2013-07-29 12:05:00,
2013-07-30 01:10:00,50.2,48.6,29.97,NNE,33,12.0,19.0,94,0.00,,,0.00,meteohub,2013-07-29 12:10:00,
2013-07-30 01:16:00,50.2,48.6,29.97,NE,52,16.0,18.0,94,0.00,,,0.00,meteohub,2013-07-29 12:16:00,
2013-07-30 01:21:00,50.2,48.6,29.97,NE,37,16.0,18.0,94,0.00,,,0.00,meteohub,2013-07-29 12:21:00,
2013-07-30 01:27:00,50.0,48.4,29.97,NE,49,12.0,17.0,94,0.00,,,0.00,meteohub,2013-07-29 12:27:00,
2013-07-30 01:32:00,50.0,48.4,29.97,NE,53,11.0,17.0,94,0.00,,,0.00,meteohub,2013-07-29 12:32:00,
2013-07-30 01:38:00,49.8,48.2,29.97,NE,55,10.0,16.0,94,0.00,,,0.00,meteohub,2013-07-29 12:38:00,
2013-07-30 01:43:00,49.8,48.2,29.98,NE,44,13.0,16.0,94,0.00,,,0.00,meteohub,2013-07-29 12:43:00,
2013-07-30 01:48:00,49.8,48.4,29.98,NE,39,12.0,16.0,95,0.00,,,0.00,meteohub,2013-07-29 12:48:00,
2013-07-30 01:53:00,49.8,48.4,29.98,NE,46,12.0,15.0,95,0.00,,,0.00,meteohub,2013-07-29 12:53:00,
2013-07-30 01:59:00,49.6,48.2,29.98,NE,37,10.0,15.0,95,0.00,,,0.00,meteohub,2013-07-29 12:59:00,
2013-07-30 02:04:00,49.6,48.2,29.98,NE,34,11.0,15.0,95,0.00,,,0.00,meteohub,2013-07-29 13:04:00,
2013-07-30 02:09:00,49.6,48.2,29.98,NNE,21,9.0,14.0,95,0.00,,,0.00,meteohub,2013-07-29 13:09:00,
2013-07-30 02:14:00,49.6,48.2,29.98,NE,44,11.0,15.0,95,0.00,,,0.00,meteohub,2013-07-29 13:14:00,
2013-07-30 02:20:00,49.6,48.2,29.98,NE,41,7.0,15.0,95,0.00,,,0.00,meteohub,2013-07-29 13:20:00,
2013-07-30 02:26:00,49.8,48.4,29.98,NE,41,10.0,14.0,95,0.00,,,0.00,meteohub,2013-07-29 13:26:00,
2013-07-30 02:31:00,49.8,48.4,29.98,NE,34,13.0,14.0,95,0.00,,,0.00,meteohub,2013-07-29 13:31:00,
2013-07-30 02:37:00,50.0,48.4,29.99,NE,41,11.0,14.0,94,0.00,,,0.00,meteohub,2013-07-29 13:37:00,
2013-07-30 02:42:00,50.0,48.4,29.99,NE,43,12.0,14.0,94,0.00,,,0.00,meteohub,2013-07-29 13:42:00,
2013-07-30 02:47:00,50.2,48.6,29.99,NNE,30,9.0,14.0,94,0.00,,,0.00,meteohub,2013-07-29 13:47:00,
2013-07-30 02:52:00,50.4,48.7,29.99,NNE,27,10.0,14.0,94,0.00,,,0.00,meteohub,2013-07-29 13:52:00,
2013-07-30 02:58:00,50.4,48.7,29.99,NNE,18,12.0,14.0,94,0.00,,,0.00,meteohub,2013-07-29 13:58:00,
2013-07-30 03:03:00,50.4,48.7,29.99,NNE,31,9.0,14.0,94,0.00,,,0.00,meteohub,2013-07-29 14:03:00,
2013-07-30 03:08:00,50.4,48.7,29.99,NE,47,10.0,14.0,94,0.00,,,0.00,meteohub,2013-07-29 14:08:00,
2013-07-30 03:13:00,50.5,48.6,29.99,NE,56,8.0,14.0,93,0.00,,,0.00,meteohub,2013-07-29 14:13:00,
2013-07-30 03:18:00,50.5,48.6,29.99,NE,51,10.0,14.0,93,0.00,,,0.00,meteohub,2013-07-29 14:18:00,
2013-07-30 03:23:00,50.5,48.6,29.99,NE,48,9.0,13.0,93,0.00,,,0.00,meteohub,2013-07-29 14:23:00,
2013-07-30 03:29:00,50.7,48.7,29.99,NE,49,11.0,13.0,93,0.00,,,0.00,meteohub,2013-07-29 14:29:00,
2013-07-30 03:34:00,50.7,48.6,29.99,NE,48,9.0,13.0,92,0.00,,,0.00,meteohub,2013-07-29 14:34:00,
2013-07-30 03:39:00,51.1,48.9,29.99,NE,39,12.0,13.0,92,0.00,,,0.00,meteohub,2013-07-29 14:39:00,
2013-07-30 03:45:00,51.1,48.9,29.99,NE,39,8.0,13.0,92,0.00,,,0.00,meteohub,2013-07-29 14:45:00,
2013-07-30 03:50:00,51.1,48.9,29.99,NE,44,14.0,14.0,92,0.00,,,0.00,meteohub,2013-07-29 14:50:00,
2013-07-30 03:55:00,51.1,48.6,29.99,NE,47,14.0,14.0,91,0.00,,,0.00,meteohub,2013-07-29 14:55:00,
2013-07-30 04:01:00,51.1,48.9,29.99,ENE,65,8.0,15.0,92,0.00,,,0.00,meteohub,2013-07-29 15:01:00,
2013-07-30 04:07:00,51.1,49.1,29.99,NE,43,10.0,15.0,93,0.00,,,0.00,meteohub,2013-07-29 15:07:00,
2013-07-30 04:12:00,50.9,48.9,29.99,NE,46,15.0,16.0,93,0.00,,,0.00,meteohub,2013-07-29 15:12:00,
2013-07-30 04:17:00,51.1,49.1,29.99,NE,53,12.0,16.0,93,0.00,,,0.00,meteohub,2013-07-29 15:17:00,
2013-07-30 04:22:00,51.1,49.1,29.99,NE,53,9.0,16.0,93,0.00,,,0.00,meteohub,2013-07-29 15:22:00,
2013-07-30 04:27:00,50.9,48.7,29.99,NE,47,13.0,15.0,92,0.00,,,0.00,meteohub,2013-07-29 15:27:00,
2013-07-30 04:33:00,51.1,49.1,29.99,NE,40,12.0,15.0,93,0.00,,,0.00,meteohub,2013-07-29 15:33:00,
2013-07-30 04:38:00,51.3,49.3,29.99,NNE,31,9.0,15.0,93,0.00,,,0.00,meteohub,2013-07-29 15:38:00,
2013-07-30 04:43:00,51.8,49.6,29.99,NE,47,12.0,15.0,92,0.00,,,0.00,meteohub,2013-07-29 15:43:00,
2013-07-30 04:48:00,52.3,50.0,29.99,NE,50,7.0,15.0,92,0.00,,,0.00,meteohub,2013-07-29 15:48:00,
2013-07-30 04:54:00,52.9,50.0,29.99,NE,42,10.0,15.0,90,0.00,,,0.00,meteohub,2013-07-29 15:54:00,
2013-07-30 04:59:00,53.1,50.5,29.99,NE,35,9.0,14.0,91,0.00,,,0.00,meteohub,2013-07-29 15:59:00,
2013-07-30 05:04:00,53.2,50.4,29.99,ENE,63,7.0,12.0,90,0.00,,,0.00,meteohub,2013-07-29 16:04:00,
2013-07-30 05:09:00,53.2,50.0,29.99,NE,50,9.0,12.0,89,0.00,,,0.00,meteohub,2013-07-29 16:09:00,
2013-07-30 05:15:00,53.1,49.8,29.99,NE,34,12.0,12.0,89,0.00,,,0.00,meteohub,2013-07-29 16:15:00,
2013-07-30 05:20:00,52.9,49.6,29.99,NE,34,10.0,14.0,89,0.00,,,0.00,meteohub,2013-07-29 16:20:00,
2013-07-30 05:25:00,53.2,50.0,29.99,NNE,32,8.0,14.0,89,0.00,,,0.00,meteohub,2013-07-29 16:25:00,
2013-07-30 05:30:00,53.2,50.0,29.99,NE,46,11.0,14.0,89,0.00,,,0.00,meteohub,2013-07-29 16:30:00,
2013-07-30 05:36:00,53.4,50.2,29.99,NNE,32,6.0,13.0,89,0.00,,,0.00,meteohub,2013-07-29 16:36:00,
2013-07-30 05:41:00,53.8,50.5,29.99,NNE,26,11.0,13.0,89,0.00,,,0.00,meteohub,2013-07-29 16:41:00,
2013-07-30 05:46:00,54.1,50.9,29.99,NNE,25,11.0,15.0,89,0.00,,,0.00,meteohub,2013-07-29 16:46:00,
2013-07-30 05:51:00,54.3,50.9,29.99,ENE,58,10.0,15.0,88,0.00,,,0.00,meteohub,2013-07-29 16:51:00,
2013-07-30 05:57:00,54.9,51.1,29.99,NNE,28,10.0,16.0,87,0.00,,,0.00,meteohub,2013-07-29 16:57:00,
2013-07-30 06:03:00,55.0,51.6,29.99,NE,41,13.0,16.0,88,0.00,,,0.00,meteohub,2013-07-29 17:03:00,
2013-07-30 06:08:00,55.6,51.4,29.99,ENE,61,7.0,14.0,86,0.00,,,0.00,meteohub,2013-07-29 17:08:00,
2013-07-30 06:13:00,55.2,51.1,29.99,NNE,27,6.0,14.0,86,0.00,,,0.00,meteohub,2013-07-29 17:13:00,
2013-07-30 06:19:00,55.6,51.4,29.99,NNE,32,6.0,14.0,86,0.00,,,0.00,meteohub,2013-07-29 17:19:00,
2013-07-30 06:24:00,55.8,51.6,29.99,ENE,60,3.0,13.0,86,0.00,,,0.00,meteohub,2013-07-29 17:24:00,
2013-07-30 06:29:00,55.8,51.3,29.99,ENE,58,5.0,13.0,85,0.00,,,0.00,meteohub,2013-07-29 17:29:00,
2013-07-30 06:34:00,55.9,51.8,29.99,NNE,33,4.0,13.0,86,0.00,,,0.00,meteohub,2013-07-29 17:34:00,
2013-07-30 06:39:00,56.3,51.4,29.99,ENE,62,5.0,13.0,84,0.00,,,0.00,meteohub,2013-07-29 17:39:00,
2013-07-30 06:44:00,56.5,51.6,29.99,NE,53,3.0,13.0,84,0.00,,,0.00,meteohub,2013-07-29 17:44:00,
2013-07-30 06:50:00,57.6,52.7,29.99,NNE,29,6.0,12.0,84,0.00,,,0.00,meteohub,2013-07-29 17:50:00,
2013-07-30 06:55:00,57.9,52.2,29.99,NE,38,5.0,11.0,81,0.00,,,0.00,meteohub,2013-07-29 17:55:00,
2013-07-30 07:00:00,58.3,53.1,29.99,North,1,4.0,11.0,83,0.00,,,0.00,meteohub,2013-07-29 18:00:00,
2013-07-30 07:05:00,58.5,52.0,29.99,NNW,335,9.0,11.0,79,0.00,,,0.00,meteohub,2013-07-29 18:05:00,
2013-07-30 07:11:00,58.3,52.2,29.99,NNE,20,4.0,13.0,80,0.00,,,0.00,meteohub,2013-07-29 18:11:00,
2013-07-30 07:16:00,58.3,51.8,29.99,NNE,21,9.0,13.0,79,0.00,,,0.00,meteohub,2013-07-29 18:16:00,
2013-07-30 07:21:00,58.5,52.3,29.99,NE,34,5.0,13.0,80,0.00,,,0.00,meteohub,2013-07-29 18:21:00,
2013-07-30 07:26:00,58.6,51.8,29.99,NW,316,6.0,14.0,78,0.00,,,0.00,meteohub,2013-07-29 18:26:00,
2013-07-30 07:32:00,59.2,52.3,29.99,NE,51,6.0,14.0,78,0.00,,,0.00,meteohub,2013-07-29 18:32:00,
2013-07-30 07:37:00,59.7,52.5,29.99,NNW,343,6.0,14.0,77,0.00,,,0.00,meteohub,2013-07-29 18:37:00,
2013-07-30 07:42:00,59.4,51.8,29.99,NNE,13,7.0,13.0,76,0.00,,,0.00,meteohub,2013-07-29 18:42:00,
2013-07-30 07:47:00,59.2,52.0,29.99,North,354,3.0,13.0,77,0.00,,,0.00,meteohub,2013-07-29 18:47:00,
2013-07-30 07:52:00,59.4,51.8,29.99,NE,39,11.0,13.0,76,0.00,,,0.00,meteohub,2013-07-29 18:52:00,
2013-07-30 07:58:00,59.5,52.3,29.99,NNE,19,6.0,12.0,77,0.00,,,0.00,meteohub,2013-07-29 18:58:00,
2013-07-30 08:03:00,60.3,52.7,29.99,NNW,337,5.0,12.0,76,0.00,,,0.00,meteohub,2013-07-29 19:03:00,
2013-07-30 08:08:00,60.1,52.2,29.99,NW,309,2.0,12.0,75,0.00,,,0.00,meteohub,2013-07-29 19:08:00,
2013-07-30 08:13:00,61.2,52.5,29.99,NE,35,7.0,11.0,73,0.00,,,0.00,meteohub,2013-07-29 19:13:00,
2013-07-30 08:19:00,61.3,52.2,29.99,NNW,347,7.0,11.0,72,0.00,,,0.00,meteohub,2013-07-29 19:19:00,
2013-07-30 08:24:00,61.2,52.9,29.99,NNE,32,5.0,9.0,74,0.00,,,0.00,meteohub,2013-07-29 19:24:00,
2013-07-30 08:29:00,61.9,52.7,29.99,North,349,4.0,11.0,72,0.00,,,0.00,meteohub,2013-07-29 19:29:00,
2013-07-30 08:35:00,61.9,52.3,29.99,NNE,14,3.0,11.0,71,0.00,,,0.00,meteohub,2013-07-29 19:35:00,
2013-07-30 08:40:00,62.6,53.1,29.99,NE,56,5.0,11.0,71,0.00,,,0.00,meteohub,2013-07-29 19:40:00,
2013-07-30 08:45:00,62.4,52.2,29.99,NNW,329,5.0,11.0,69,0.00,,,0.00,meteohub,2013-07-29 19:45:00,
2013-07-30 08:50:00,62.2,52.3,29.99,East,89,2.0,11.0,70,0.00,,,0.00,meteohub,2013-07-29 19:50:00,
2013-07-30 08:56:00,63.0,53.1,29.99,North,4,2.0,10.0,70,0.00,,,0.00,meteohub,2013-07-29 19:56:00,
2013-07-30 09:02:00,63.5,52.7,29.99,NNW,340,5.0,10.0,68,0.00,,,0.00,meteohub,2013-07-29 20:02:00,
2013-07-30 09:07:00,62.8,52.0,29.99,NE,50,3.0,9.0,68,0.00,,,0.00,meteohub,2013-07-29 20:07:00,
2013-07-30 09:12:00,63.0,52.7,29.99,NE,49,5.0,12.0,69,0.00,,,0.00,meteohub,2013-07-29 20:12:00,
2013-07-30 09:18:00,63.3,53.4,29.99,NW,323,3.0,12.0,70,0.00,,,0.00,meteohub,2013-07-29 20:18:00,
2013-07-30 09:23:00,64.6,52.9,29.99,North,0,3.0,11.0,66,0.00,,,0.00,meteohub,2013-07-29 20:23:00,
2013-07-30 09:28:00,64.6,52.9,29.98,NW,310,2.0,11.0,66,0.00,,,0.00,meteohub,2013-07-29 20:28:00,
2013-07-30 09:33:00,64.8,52.7,29.99,WNW,296,7.0,11.0,65,0.00,,,0.00,meteohub,2013-07-29 20:33:00,
2013-07-30 09:38:00,64.0,52.5,29.98,North,1,6.0,12.0,66,0.00,,,0.00,meteohub,2013-07-29 20:38:00,
2013-07-30 09:43:00,64.9,52.9,29.98,NNE,28,7.0,12.0,65,0.00,,,0.00,meteohub,2013-07-29 20:43:00,
2013-07-30 09:49:00,65.5,53.4,29.98,NW,308,3.0,12.0,65,0.00,,,0.00,meteohub,2013-07-29 20:49:00,
2013-07-30 09:54:00,65.1,52.7,29.98,NNW,330,4.0,12.0,64,0.00,,,0.00,meteohub,2013-07-29 20:54:00,
2013-07-30 09:59:00,65.5,52.5,29.98,NE,38,8.0,11.0,63,0.00,,,0.00,meteohub,2013-07-29 20:59:00,
2013-07-30 10:05:00,64.9,52.9,29.98,ESE,103,1.0,11.0,65,0.00,,,0.00,meteohub,2013-07-29 21:05:00,
2013-07-30 10:10:00,65.8,53.8,29.98,NW,311,3.0,12.0,65,0.00,,,0.00,meteohub,2013-07-29 21:10:00,
2013-07-30 10:15:00,65.8,52.5,29.98,NW,307,7.0,12.0,62,0.00,,,0.00,meteohub,2013-07-29 21:15:00,
2013-07-30 10:20:00,66.2,52.3,29.98,NNE,23,3.0,12.0,61,0.00,,,0.00,meteohub,2013-07-29 21:20:00,
2013-07-30 10:25:00,66.0,52.2,29.98,North,8,7.0,12.0,61,0.00,,,0.00,meteohub,2013-07-29 21:25:00,
2013-07-30 10:30:00,66.7,52.3,29.98,WNW,300,6.0,11.0,60,0.00,,,0.00,meteohub,2013-07-29 21:30:00,
2013-07-30 10:35:00,66.4,52.5,29.98,North,6,6.0,10.0,61,0.00,,,0.00,meteohub,2013-07-29 21:35:00,
2013-07-30 10:41:00,66.9,53.1,29.98,North,8,7.0,10.0,61,0.00,,,0.00,meteohub,2013-07-29 21:41:00,
2013-07-30 10:46:00,68.2,53.2,29.98,NNW,336,7.0,11.0,59,0.00,,,0.00,meteohub,2013-07-29 21:46:00,
2013-07-30 10:51:00,67.5,51.3,29.98,NE,52,4.0,12.0,56,0.00,,,0.00,meteohub,2013-07-29 21:51:00,
2013-07-30 10:57:00,67.5,51.6,29.98,NNW,336,7.0,12.0,57,0.00,,,0.00,meteohub,2013-07-29 21:57:00,
2013-07-30 11:02:00,67.3,52.0,29.98,NE,39,5.0,12.0,58,0.00,,,0.00,meteohub,2013-07-29 22:02:00,
2013-07-30 11:07:00,67.8,51.6,29.98,West,280,1.0,13.0,56,0.00,,,0.00,meteohub,2013-07-29 22:07:00,
2013-07-30 11:13:00,67.8,51.6,29.98,ENE,63,5.0,13.0,56,0.00,,,0.00,meteohub,2013-07-29 22:13:00,
2013-07-30 11:18:00,67.6,51.8,29.97,North,10,9.0,11.0,57,0.00,,,0.00,meteohub,2013-07-29 22:18:00,
2013-07-30 11:23:00,68.4,53.1,29.97,NW,310,4.0,12.0,58,0.00,,,0.00,meteohub,2013-07-29 22:23:00,
2013-07-30 11:28:00,68.7,52.0,29.97,NNW,342,5.0,12.0,55,0.00,,,0.00,meteohub,2013-07-29 22:28:00,
2013-07-30 11:33:00,68.4,50.5,29.97,NE,38,9.0,10.0,53,0.00,,,0.00,meteohub,2013-07-29 22:33:00,
2013-07-30 11:39:00,68.5,51.8,29.97,NNW,328,3.0,10.0,55,0.00,,,0.00,meteohub,2013-07-29 22:39:00,
2013-07-30 11:44:00,69.6,52.2,29.97,NE,54,7.0,10.0,54,0.00,,,0.00,meteohub,2013-07-29 22:44:00,
2013-07-30 11:50:00,69.3,52.3,29.97,NNE,13,7.0,10.0,55,0.00,,,0.00,meteohub,2013-07-29 22:50:00,
2013-07-30 11:55:00,69.8,52.3,29.97,North,11,6.0,11.0,54,0.00,,,0.00,meteohub,2013-07-29 22:55:00,
2013-07-30 12:00:00,70.2,52.2,29.97,North,1,5.0,11.0,53,0.00,,,0.00,meteohub,2013-07-29 23:00:00,
2013-07-30 12:06:00,71.1,52.0,29.97,NW,323,2.0,11.0,51,0.00,,,0.00,meteohub,2013-07-29 23:06:00,
2013-07-30 12:11:00,70.9,51.3,29.97,North,357,5.0,11.0,50,0.00,,,0.00,meteohub,2013-07-29 23:11:00,
2013-07-30 12:17:00,70.2,51.3,29.97,North,6,11.0,11.0,51,0.00,,,0.00,meteohub,2013-07-29 23:17:00,
2013-07-30 12:22:00,69.6,50.7,29.97,NNE,32,7.0,11.0,51,0.00,,,0.00,meteohub,2013-07-29 23:22:00,
2013-07-30 12:27:00,70.0,50.0,29.96,WNW,301,3.0,11.0,49,0.00,,,0.00,meteohub,2013-07-29 23:27:00,
2013-07-30 12:32:00,70.3,49.6,29.96,NNE,22,9.0,11.0,48,0.00,,,0.00,meteohub,2013-07-29 23:32:00,
2013-07-30 12:38:00,70.0,49.5,29.96,NE,44,4.0,11.0,48,0.00,,,0.00,meteohub,2013-07-29 23:38:00,
2013-07-30 12:43:00,69.6,49.6,29.97,North,8,7.0,11.0,49,0.00,,,0.00,meteohub,2013-07-29 23:43:00,
2013-07-30 12:48:00,69.6,50.7,29.96,North,349,4.0,11.0,51,0.00,,,0.00,meteohub,2013-07-29 23:48:00,
2013-07-30 12:54:00,70.0,51.1,29.96,NNW,343,4.0,11.0,51,0.00,,,0.00,meteohub,2013-07-29 23:54:00,
2013-07-30 12:59:00,70.0,51.1,29.96,WNW,295,6.0,11.0,51,0.00,,,0.00,meteohub,2013-07-29 23:59:00,
2013-07-30 13:04:00,70.7,51.1,29.96,NNW,347,6.0,11.0,50,0.00,,,0.00,meteohub,2013-07-30 00:04:00,
2013-07-30 13:09:00,70.5,49.8,29.96,NNW,346,6.0,14.0,48,0.00,,,0.00,meteohub,2013-07-30 00:09:00,
2013-07-30 13:15:00,70.3,50.4,29.96,NNE,15,8.0,14.0,49,0.00,,,0.00,meteohub,2013-07-30 00:15:00,
2013-07-30 13:20:00,70.9,50.2,29.96,NW,322,6.0,14.0,48,0.00,,,0.00,meteohub,2013-07-30 00:20:00,
2013-07-30 13:26:00,70.7,50.0,29.96,NNE,14,3.0,12.0,48,0.00,,,0.00,meteohub,2013-07-30 00:26:00,
2013-07-30 13:31:00,70.5,49.8,29.96,NE,56,0.0,12.0,48,0.00,,,0.00,meteohub,2013-07-30 00:31:00,
2013-07-30 13:36:00,71.2,51.1,29.96,North,11,3.0,11.0,49,0.00,,,0.00,meteohub,2013-07-30 00:36:00,
2013-07-30 13:41:00,72.0,50.7,29.96,NW,323,5.0,8.0,47,0.00,,,0.00,meteohub,2013-07-30 00:41:00,
2013-07-30 13:47:00,72.0,51.3,29.96,North,359,4.0,8.0,48,0.00,,,0.00,meteohub,2013-07-30 00:47:00,
2013-07-30 13:52:00,72.1,50.7,29.96,NW,323,3.0,10.0,47,0.00,,,0.00,meteohub,2013-07-30 00:52:00,
2013-07-30 13:57:00,72.1,50.2,29.96,NW,309,8.0,13.0,46,0.00,,,0.00,meteohub,2013-07-30 00:57:00,
2013-07-30 14:02:00,72.1,50.7,29.96,WNW,300,9.0,14.0,47,0.00,,,0.00,meteohub,2013-07-30 01:02:00,
2013-07-30 14:08:00,72.3,50.9,29.96,NW,311,7.0,14.0,47,0.00,,,0.00,meteohub,2013-07-30 01:08:00,
2013-07-30 14:13:00,72.1,50.7,29.96,North,359,7.0,14.0,47,0.00,,,0.00,meteohub,2013-07-30 01:13:00,
2013-07-30 14:18:00,71.4,51.3,29.96,NNE,15,5.0,12.0,49,0.00,,,0.00,meteohub,2013-07-30 01:18:00,
2013-07-30 14:23:00,71.2,51.6,29.96,NW,319,1.0,12.0,50,0.00,,,0.00,meteohub,2013-07-30 01:23:00,
2013-07-30 14:29:00,71.1,50.9,29.96,NW,326,5.0,10.0,49,0.00,,,0.00,meteohub,2013-07-30 01:29:00,
2013-07-30 14:34:00,70.9,51.3,29.96,NNE,23,5.0,10.0,50,0.00,,,0.00,meteohub,2013-07-30 01:34:00,
2013-07-30 14:39:00,70.9,50.7,29.96,NNE,23,6.0,9.0,49,0.00,,,0.00,meteohub,2013-07-30 01:39:00,
2013-07-30 14:44:00,70.9,51.3,29.96,NE,51,1.0,9.0,50,0.00,,,0.00,meteohub,2013-07-30 01:44:00,
2013-07-30 14:50:00,71.6,51.4,29.96,North,7,6.0,8.0,49,0.00,,,0.00,meteohub,2013-07-30 01:50:00,
2013-07-30 14:55:00,72.0,51.8,29.97,NW,314,7.0,9.0,49,0.00,,,0.00,meteohub,2013-07-30 01:55:00,
2013-07-30 15:00:00,72.0,51.8,29.96,NE,44,2.0,10.0,49,0.00,,,0.00,meteohub,2013-07-30 02:00:00,
2013-07-30 15:06:00,72.1,52.0,29.97,NW,313,5.0,9.0,49,0.00,,,0.00,meteohub,2013-07-30 02:06:00,
2013-07-30 15:11:00,72.0,53.4,29.97,NW,317,6.0,9.0,52,0.00,,,0.00,meteohub,2013-07-30 02:11:00,
2013-07-30 15:16:00,71.4,53.4,29.97,NW,304,7.0,9.0,53,0.00,,,0.00,meteohub,2013-07-30 02:16:00,
2013-07-30 15:22:00,70.2,53.8,29.97,WNW,294,11.0,13.0,56,0.00,,,0.00,meteohub,2013-07-30 02:22:00,
2013-07-30 15:27:00,69.6,53.8,29.97,WNW,299,15.0,15.0,57,0.00,,,0.00,meteohub,2013-07-30 02:27:00,
2013-07-30 15:33:00,68.7,53.8,29.97,WNW,287,8.0,15.0,59,0.00,,,0.00,meteohub,2013-07-30 02:33:00,
2013-07-30 15:38:00,67.6,54.1,29.97,WNW,300,6.0,15.0,62,0.00,,,0.00,meteohub,2013-07-30 02:38:00,
2013-07-30 15:43:00,66.7,53.8,29.97,WNW,294,9.0,15.0,63,0.00,,,0.00,meteohub,2013-07-30 02:43:00,
2013-07-30 15:48:00,66.0,53.4,29.97,WNW,302,6.0,14.0,64,0.00,,,0.00,meteohub,2013-07-30 02:48:00,
2013-07-30 15:54:00,65.5,53.4,29.97,WNW,296,6.0,13.0,65,0.00,,,0.00,meteohub,2013-07-30 02:54:00,
2013-07-30 15:59:00,64.9,52.9,29.98,WNW,293,6.0,12.0,65,0.00,,,0.00,meteohub,2013-07-30 02:59:00,
2013-07-30 16:04:00,64.8,53.1,29.98,WNW,292,6.0,11.0,66,0.00,,,0.00,meteohub,2013-07-30 03:04:00,
2013-07-30 16:09:00,64.0,52.9,29.98,WNW,299,6.0,11.0,67,0.00,,,0.00,meteohub,2013-07-30 03:09:00,
2013-07-30 16:15:00,63.7,52.9,29.98,WNW,295,8.0,11.0,68,0.00,,,0.00,meteohub,2013-07-30 03:15:00,
2013-07-30 16:20:00,62.8,52.5,29.98,WNW,298,9.0,11.0,69,0.00,,,0.00,meteohub,2013-07-30 03:20:00,
2013-07-30 16:25:00,62.8,52.5,29.98,WNW,291,6.0,10.0,69,0.00,,,0.00,meteohub,2013-07-30 03:25:00,
2013-07-30 16:30:00,63.0,52.2,29.98,West,273,6.0,10.0,68,0.00,,,0.00,meteohub,2013-07-30 03:30:00,
2013-07-30 16:36:00,62.4,52.5,29.98,WNW,290,8.0,9.0,70,0.00,,,0.00,meteohub,2013-07-30 03:36:00,
2013-07-30 16:41:00,62.2,52.3,29.98,West,271,7.0,11.0,70,0.00,,,0.00,meteohub,2013-07-30 03:41:00,
2013-07-30 16:47:00,61.3,51.8,29.98,WNW,290,7.0,11.0,71,0.00,,,0.00,meteohub,2013-07-30 03:47:00,
2013-07-30 16:52:00,61.7,51.8,29.99,WNW,290,8.0,11.0,70,0.00,,,0.00,meteohub,2013-07-30 03:52:00,
2013-07-30 16:57:00,62.1,51.8,29.99,West,274,4.0,11.0,69,0.00,,,0.00,meteohub,2013-07-30 03:57:00,
2013-07-30 17:01:00,62.1,51.8,29.99,WNW,285,7.0,11.0,69,0.00,,,0.00,meteohub,2013-07-30 04:01:00,
2013-07-30 17:02:00,61.9,51.6,29.99,WNW,283,6.0,11.0,69,0.00,,,0.00,meteohub,2013-07-30 04:02:00,
2013-07-30 17:03:00,61.9,51.6,29.99,WNW,288,6.0,11.0,69,0.00,,,0.00,meteohub,2013-07-30 04:03:00,
2013-07-30 17:08:00,61.3,51.4,29.99,West,263,5.0,10.0,70,0.00,,,0.00,meteohub,2013-07-30 04:08:00,
2013-07-30 17:10:00,61.5,51.6,29.99,SW,236,4.0,10.0,70,0.00,,,0.00,meteohub,2013-07-30 04:10:00,
2013-07-30 17:12:00,61.5,52.0,29.99,WSW,243,3.0,9.0,71,0.00,,,0.00,meteohub,2013-07-30 04:12:00,
2013-07-30 17:17:00,62.1,52.2,30.00,West,262,5.0,8.0,70,0.00,,,0.00,meteohub,2013-07-30 04:17:00,
2013-07-30 17:22:00,62.2,52.0,30.00,WNW,299,5.0,7.0,69,0.00,,,0.00,meteohub,2013-07-30 04:22:00,
2013-07-30 17:27:00,63.1,52.0,30.00,NW,316,5.0,7.0,67,0.00,,,0.00,meteohub,2013-07-30 04:27:00,
2013-07-30 17:33:00,63.7,52.2,30.00,NW,312,3.0,7.0,66,0.00,,,0.00,meteohub,2013-07-30 04:33:00,
2013-07-30 17:38:00,63.7,52.5,30.00,NW,319,3.0,6.0,67,0.00,,,0.00,meteohub,2013-07-30 04:38:00,
2013-07-30 17:43:00,63.9,53.1,30.01,NNW,330,3.0,5.0,68,0.00,,,0.00,meteohub,2013-07-30 04:43:00,
2013-07-30 17:48:00,63.9,51.8,30.01,WNW,302,1.0,4.0,65,0.00,,,0.00,meteohub,2013-07-30 04:48:00,
2013-07-30 17:53:00,63.1,52.0,30.01,SW,223,5.0,5.0,67,0.00,,,0.00,meteohub,2013-07-30 04:53:00,
2013-07-30 17:58:00,62.1,51.8,30.01,SW,227,1.0,5.0,69,0.00,,,0.00,meteohub,2013-07-30 04:58:00,
2013-07-30 18:03:00,63.0,53.1,30.01,NNW,332,0.0,5.0,70,0.00,,,0.00,meteohub,2013-07-30 05:03:00,
2013-07-30 18:08:00,62.2,51.6,30.01,SSW,209,4.0,5.0,68,0.00,,,0.00,meteohub,2013-07-30 05:08:00,
2013-07-30 18:14:00,61.2,51.6,30.01,SSW,212,4.0,4.0,71,0.00,,,0.00,meteohub,2013-07-30 05:14:00,
2013-07-30 18:19:00,60.4,51.4,30.02,SSW,201,5.0,5.0,72,0.00,,,0.00,meteohub,2013-07-30 05:19:00,
2013-07-30 18:24:00,60.1,51.4,30.01,SSE,166,0.0,7.0,73,0.00,,,0.00,meteohub,2013-07-30 05:24:00,
2013-07-30 18:29:00,61.3,52.7,30.02,SW,227,2.0,7.0,73,0.00,,,0.00,meteohub,2013-07-30 05:29:00,
2013-07-30 18:34:00,61.0,51.4,30.02,South,191,5.0,7.0,71,0.00,,,0.00,meteohub,2013-07-30 05:34:00,
2013-07-30 18:39:00,59.2,51.3,30.02,SSW,204,4.0,5.0,75,0.00,,,0.00,meteohub,2013-07-30 05:39:00,
2013-07-30 18:44:00,60.6,51.6,30.02,SW,216,3.0,6.0,72,0.00,,,0.00,meteohub,2013-07-30 05:44:00,
2013-07-30 18:50:00,61.2,51.3,30.02,South,172,4.0,6.0,70,0.00,,,0.00,meteohub,2013-07-30 05:50:00,
2013-07-30 18:55:00,57.6,50.7,30.02,South,172,6.0,6.0,78,0.00,,,0.00,meteohub,2013-07-30 05:55:00,
2013-07-30 19:00:00,55.8,50.4,30.02,South,186,7.0,8.0,82,0.00,,,0.00,meteohub,2013-07-30 06:00:00,
2013-07-30 19:05:00,54.9,50.4,30.03,SSW,198,7.0,8.0,85,0.00,,,0.00,meteohub,2013-07-30 06:05:00,
2013-07-30 19:10:00,54.3,50.5,30.03,South,181,5.0,8.0,87,0.00,,,0.00,meteohub,2013-07-30 06:10:00,
2013-07-30 19:16:00,56.7,50.9,30.03,SSW,203,7.0,8.0,81,0.00,,,0.00,meteohub,2013-07-30 06:16:00,
2013-07-30 19:21:00,55.0,50.5,30.03,South,174,6.0,8.0,85,0.00,,,0.00,meteohub,2013-07-30 06:21:00,
2013-07-30 19:26:00,54.9,50.7,30.03,South,177,7.0,8.0,86,0.00,,,0.00,meteohub,2013-07-30 06:26:00,
2013-07-30 19:31:00,55.0,50.5,30.03,South,179,7.0,8.0,85,0.00,,,0.00,meteohub,2013-07-30 06:31:00,
2013-07-30 19:36:00,54.9,50.4,30.03,SSW,200,7.0,8.0,85,0.00,,,0.00,meteohub,2013-07-30 06:36:00,
2013-07-30 19:41:00,54.7,50.5,30.04,SSW,200,7.0,9.0,86,0.00,,,0.00,meteohub,2013-07-30 06:41:00,
2013-07-30 19:47:00,55.2,51.1,30.04,SW,219,10.0,10.0,86,0.00,,,0.00,meteohub,2013-07-30 06:47:00,
2013-07-30 19:52:00,55.8,51.1,30.04,SW,216,10.0,11.0,84,0.00,,,0.00,meteohub,2013-07-30 06:52:00,
2013-07-30 19:57:00,54.9,50.7,30.04,WSW,240,12.0,12.0,86,0.00,,,0.00,meteohub,2013-07-30 06:57:00,
2013-07-30 20:02:00,55.0,50.5,30.04,West,261,15.0,17.0,85,0.00,,,0.00,meteohub,2013-07-30 07:02:00,
2013-07-30 20:07:00,55.2,50.5,30.04,West,264,18.0,19.0,84,0.00,,,0.00,meteohub,2013-07-30 07:07:00,
2013-07-30 20:12:00,55.4,50.4,30.05,WSW,255,16.0,19.0,83,0.00,,,0.00,meteohub,2013-07-30 07:12:00,
2013-07-30 20:17:00,55.6,50.2,30.05,West,268,12.0,19.0,82,0.00,,,0.00,meteohub,2013-07-30 07:17:00,
2013-07-30 20:23:00,55.6,50.2,30.05,West,272,10.0,18.0,82,0.00,,,0.00,meteohub,2013-07-30 07:23:00,
2013-07-30 20:28:00,55.9,50.5,30.05,West,268,10.0,16.0,82,0.00,,,0.00,meteohub,2013-07-30 07:28:00,
2013-07-30 20:33:00,55.9,50.9,30.05,WNW,282,7.0,16.0,83,0.00,,,0.00,meteohub,2013-07-30 07:33:00,
2013-07-30 20:38:00,55.6,50.5,30.05,WSW,252,5.0,16.0,83,0.00,,,0.00,meteohub,2013-07-30 07:38:00,
2013-07-30 20:43:00,55.2,50.5,30.05,WSW,240,7.0,16.0,84,0.00,,,0.00,meteohub,2013-07-30 07:43:00,
2013-07-30 20:49:00,55.2,50.7,30.06,West,264,8.0,13.0,85,0.00,,,0.00,meteohub,2013-07-30 07:49:00,
2013-07-30 20:54:00,55.0,50.5,30.06,WSW,245,10.0,11.0,85,0.00,,,0.00,meteohub,2013-07-30 07:54:00,
2013-07-30 20:59:00,54.9,50.4,30.06,SW,233,8.0,11.0,85,0.00,,,0.00,meteohub,2013-07-30 07:59:00,
2013-07-30 21:04:00,54.9,50.7,30.06,SSW,213,8.0,11.0,86,0.00,,,0.00,meteohub,2013-07-30 08:04:00,
2013-07-30 21:10:00,54.7,50.9,30.06,SW,219,7.0,11.0,87,0.00,,,0.00,meteohub,2013-07-30 08:10:00,
2013-07-30 21:15:00,54.9,51.1,30.06,SW,226,9.0,11.0,87,0.00,,,0.00,meteohub,2013-07-30 08:15:00,
2013-07-30 21:20:00,54.7,50.9,30.06,SW,221,6.0,11.0,87,0.00,,,0.00,meteohub,2013-07-30 08:20:00,
2013-07-30 21:25:00,54.9,51.1,30.06,SW,226,7.0,10.0,87,0.00,,,0.00,meteohub,2013-07-30 08:25:00,
2013-07-30 21:31:00,54.9,50.7,30.06,SW,226,8.0,9.0,86,0.00,,,0.00,meteohub,2013-07-30 08:31:00,
2013-07-30 21:36:00,54.7,50.5,30.06,SSW,212,8.0,10.0,86,0.00,,,0.00,meteohub,2013-07-30 08:36:00,
2013-07-30 21:41:00,54.1,50.4,30.06,SSW,207,8.0,11.0,87,0.00,,,0.00,meteohub,2013-07-30 08:41:00,
2013-07-30 21:46:00,54.0,50.2,30.06,SW,223,9.0,12.0,87,0.00,,,0.00,meteohub,2013-07-30 08:46:00,
2013-07-30 21:52:00,53.8,50.4,30.06,SW,221,10.0,12.0,88,0.00,,,0.00,meteohub,2013-07-30 08:52:00,
2013-07-30 21:57:00,53.8,50.4,30.06,SW,220,9.0,12.0,88,0.00,,,0.00,meteohub,2013-07-30 08:57:00,
2013-07-30 22:03:00,54.0,50.5,30.06,SW,215,8.0,13.0,88,0.00,,,0.00,meteohub,2013-07-30 09:03:00,
2013-07-30 22:08:00,54.0,50.5,30.06,SW,226,9.0,13.0,88,0.00,,,0.00,meteohub,2013-07-30 09:08:00,
2013-07-30 22:13:00,53.8,50.0,30.06,SW,236,7.0,13.0,87,0.00,,,0.00,meteohub,2013-07-30 09:13:00,
2013-07-30 22:18:00,53.4,50.0,30.06,SW,219,7.0,12.0,88,0.00,,,0.00,meteohub,2013-07-30 09:18:00,
2013-07-30 22:24:00,53.1,49.8,30.06,WSW,257,10.0,12.0,89,0.00,,,0.00,meteohub,2013-07-30 09:24:00,
2013-07-30 22:29:00,53.2,49.8,30.06,SW,226,9.0,10.0,88,0.00,,,0.00,meteohub,2013-07-30 09:29:00,
2013-07-30 22:34:00,52.5,49.5,30.06,WSW,240,9.0,11.0,89,0.00,,,0.00,meteohub,2013-07-30 09:34:00,
2013-07-30 22:39:00,52.5,49.6,30.07,WSW,238,8.0,11.0,90,0.00,,,0.00,meteohub,2013-07-30 09:39:00,
2013-07-30 22:44:00,52.9,49.6,30.07,WSW,240,8.0,11.0,89,0.00,,,0.00,meteohub,2013-07-30 09:44:00,
2013-07-30 22:49:00,52.7,49.5,30.07,SW,233,7.0,11.0,89,0.00,,,0.00,meteohub,2013-07-30 09:49:00,
2013-07-30 22:55:00,53.1,49.8,30.07,WSW,258,9.0,11.0,89,0.00,,,0.00,meteohub,2013-07-30 09:55:00,
2013-07-30 23:00:00,53.1,49.8,30.07,WSW,255,8.0,11.0,89,0.00,,,0.00,meteohub,2013-07-30 10:00:00,
2013-07-30 23:05:00,53.1,49.8,30.07,SW,233,8.0,11.0,89,0.00,,,0.00,meteohub,2013-07-30 10:05:00,
2013-07-30 23:11:00,52.9,49.6,30.07,SW,219,9.0,11.0,89,0.00,,,0.00,meteohub,2013-07-30 10:11:00,
2013-07-30 23:16:00,52.5,49.6,30.07,SSW,213,9.0,11.0,90,0.00,,,0.00,meteohub,2013-07-30 10:16:00,
2013-07-30 23:21:00,52.5,49.6,30.07,SW,221,10.0,11.0,90,0.00,,,0.00,meteohub,2013-07-30 10:21:00,
2013-07-30 23:26:00,52.0,49.5,30.08,SW,221,12.0,12.0,91,0.00,,,0.00,meteohub,2013-07-30 10:26:00,
2013-07-30 23:32:00,52.0,49.6,30.08,SW,219,9.0,12.0,92,0.00,,,0.00,meteohub,2013-07-30 10:32:00,
2013-07-30 23:37:00,51.8,49.6,30.08,SW,221,9.0,12.0,92,0.00,,,0.00,meteohub,2013-07-30 10:37:00,
2013-07-30 23:42:00,51.8,49.8,30.07,SW,222,8.0,12.0,93,0.00,,,0.00,meteohub,2013-07-30 10:42:00,
2013-07-30 23:47:00,52.0,50.0,30.08,WSW,243,6.0,12.0,93,0.00,,,0.00,meteohub,2013-07-30 10:47:00,
2013-07-30 23:52:00,51.8,49.8,30.07,SW,231,10.0,12.0,93,0.00,,,0.00,meteohub,2013-07-30 10:52:00,
2013-07-30 23:57:00,51.8,50.2,30.08,SW,231,6.0,10.0,94,0.00,,,0.00,meteohub,2013-07-30 10:57:00,